Miscellaneous Local Product
Issued by NWS North Platte, NE

Home | Current Version | Previous Version | Text Only | Print | Product List | Glossary On
Versions: 1 2 3 4 5 6 7 8 9 10 11 12 13 14 15 16 17 18 19 20 21 22 23 24 25 26 27 28 29 30 31 32 33 34 35 36 37 38 39 40 41 42 43 44 45 46 47 48 49 50
000
AXUS43 KLBF 310910
MISLBF


WESTERN AND NORTH CENTRAL NEBRASKA HOURLY WEATHER ROUNDUP
NATIONAL WEATHER SERVICE NORTH PLATTE NE
400 AM CDT FRI JUL 31 2015

***STATIONS NOT REPORTING VARIABLES SUCH AS SKY/WEATHER OR
PRESSURE ARE PROVIDED BY THE NEBRASKA DEPARTMENT OF
ROADS...RAWS...AND APRS NETWORKS...AND ARE NOT UNDER
NATIONAL WEATHER SERVICE QUALITY CONTROL***

...OBSERVATIONS IN AND NEAR THE EASTERN PANHANDLE OF NEBRASKA...

CITY           SKY/WX    TMP DP  RH WIND       PRES   REMARKS
PINE RIDGE     CLEAR     55  49  80 CALM      30.22S
CHADRON        CLEAR     57  49  74 CALM      30.22S
ALLIANCE       CLEAR     57  55  93 SW9       30.25F
SIDNEY         CLEAR     56  54  93 W9        30.29F
BIG SPRINGS      N/A     59  57  94 CALM        N/A
$$

...OBSERVATIONS IN NORTH CENTRAL NEBRASKA...

CITY           SKY/WX    TMP DP  RH WIND       PRES   REMARKS
VALENTINE      CLEAR     62  51  67 MISG      30.18F
THEDFORD       CLEAR     59  58  94 CALM      30.22S
AINSWORTH      CLEAR     63  56  78 CALM      30.18F
O`NEILL        CLEAR     64  63  96 W3        30.16F
ORD            CLEAR     64  62  93 CALM      30.17R
BROKEN BOW     CLEAR     64  61  90 CALM      30.19F
SPRINGVIEW       N/A     56  52  88 CALM        N/A
CHAMBERS         N/A     64  61  89 CALM        N/A
EWING            N/A     64  62  93 CALM        N/A
$$

...OBSERVATIONS IN SOUTHWEST NEBRASKA AND FAR NORTHEAST COLORADO...

CITY           SKY/WX    TMP DP  RH WIND       PRES   REMARKS
WRAY           FAIR      58  58 100 W5        30.26S
IMPERIAL       CLEAR     60  56  86 N3        30.23F
OGALLALA       CLEAR     60  59  96 CALM      30.23F
NORTH PLATTE   CLEAR     63  60  90 E3        30.20F
MCCOOK         CLEAR     67  63  87 SW7       30.20F
LEXINGTON      CLEAR     65  63  94 CALM      30.20S
PAXTON           N/A     60  56  88 CALM        N/A
BRADY            N/A     64  60  88 CALM        N/A
CALLAWAY         N/A     61  60  96 CALM        N/A
$$

...NORTH PLATTE AREA...

CITY           SKY/WX    TMP DP  RH WIND       PRES   REMARKS
AIRPORT        CLEAR     63  60  90 E3        30.20F
DOWNTOWN         N/A     68  62  82 CALM        N/A
HILLCREST        N/A     65  61  87 SE3         N/A
$$

...SOME WEATHER OBSERVATIONS FROM AROUND THE REGION...

CITY           SKY/WX    TMP DP  RH WIND       PRES   REMARKS
DENVER         MOCLDY    68  52  56 SW13      30.32S
LARAMIE        CLEAR     51  46  83 NE9       30.45S
CHEYENNE       CLEAR     57  51  80 NW5       30.38F
SCOTTSBLUFF    CLEAR     62  58  86 N3        30.27S
RAPID CITY     CLEAR     59  49  69 CALM      30.23S
PIERRE         CLEAR     60  53  77 CALM      30.14S
WINNER         FAIR      68  52  56 NE3       30.16S
SIOUX FALLS    CLEAR     61  58  90 CALM      30.13F
OMAHA          MOCLDY    70  66  87 N10G18    30.17R THUNDER
GRAND ISLAND   CLEAR     71  67  87 SW8       30.18R
KANSAS CITY    PTCLDY    66  62  87 S6        30.15F
WICHITA        MOCLDY    75  66  73 CALM      30.16S
HAYS           PTCLDY    70  61  73 CALM      30.19F
LIBERAL        CLOUDY    72  66  83 S5        30.20F
GOODLAND       CLEAR     60  58  92 NW3       30.26R
$$



USA.gov is the U.S. government's official web portal to all federal, state and local government web resources and services.